EVA711 ZSPD-RCTP

Flight info

Callsign EVA711
Flight time 1h 21m
Altitude 32100
Route MIG92D MIGOL B591 KASKA/N0456F320 L2 BERBA B591 BAKER BAKER1A
Aircraft A321/M-SDE3FGHIRWY/LB1

Departure

Time 2026-05-07 07:54
Airport Shanghai Pudong International Airport (ZSPD)

Arrival

Time 2026-05-07 09:16
Airport Taiwan Taoyuan International Airport (RCTP)
Time Latitude Longitude Altitude Speed Heading
2026-05-07 07:13 31.14867 121.80730 25 ft 0 kts 72°
2026-05-07 07:43 31.14863 121.80715 24 ft 3 kts 72°
2026-05-07 07:43 31.14857 121.80692 25 ft 3 kts 72°
2026-05-07 07:43 31.14852 121.80671 27 ft 3 kts 88°
2026-05-07 07:43 31.14854 121.80651 23 ft 3 kts 127°
2026-05-07 07:44 31.14867 121.80637 26 ft 3 kts 158°
2026-05-07 07:44 31.14879 121.80632 26 ft 2 kts 162°
2026-05-07 07:44 31.14887 121.80628 25 ft 0 kts 162°
2026-05-07 07:46 31.14859 121.80639 25 ft 8 kts 162°
2026-05-07 07:47 31.14793 121.80662 23 ft 10 kts 169°
2026-05-07 07:47 31.14723 121.80662 23 ft 10 kts 182°
2026-05-07 07:47 31.14655 121.80658 23 ft 9 kts 183°
2026-05-07 07:47 31.14590 121.80672 23 ft 12 kts 162°
2026-05-07 07:48 31.14505 121.80704 24 ft 12 kts 162°
2026-05-07 07:48 31.14432 121.80743 23 ft 11 kts 125°
2026-05-07 07:48 31.14442 121.80831 24 ft 15 kts 72°
2026-05-07 07:48 31.14484 121.80984 23 ft 22 kts 72°
2026-05-07 07:49 31.14532 121.81155 23 ft 22 kts 72°
2026-05-07 07:49 31.14577 121.81319 24 ft 21 kts 72°
2026-05-07 07:49 31.14599 121.81422 23 ft 10 kts 97°
2026-05-07 07:49 31.14524 121.81472 22 ft 18 kts 162°
2026-05-07 07:50 31.14365 121.81532 23 ft 27 kts 162°
2026-05-07 07:50 31.14185 121.81600 23 ft 27 kts 162°
2026-05-07 07:50 31.14014 121.81664 25 ft 25 kts 162°
2026-05-07 07:50 31.13837 121.81731 24 ft 27 kts 162°
2026-05-07 07:51 31.13659 121.81799 23 ft 27 kts 162°
2026-05-07 07:51 31.13485 121.81864 22 ft 26 kts 161°
2026-05-07 07:51 31.13318 121.81927 22 ft 25 kts 162°
2026-05-07 07:51 31.13155 121.81988 22 ft 24 kts 162°
2026-05-07 07:52 31.12999 121.82047 22 ft 23 kts 162°
2026-05-07 07:52 31.12849 121.82104 23 ft 22 kts 162°
2026-05-07 07:52 31.12740 121.82145 23 ft 13 kts 162°
2026-05-07 07:52 31.12691 121.82203 23 ft 10 kts 84°
2026-05-07 07:53 31.12712 121.82277 22 ft 10 kts 72°
2026-05-07 07:53 31.12736 121.82351 22 ft 9 kts 52°
2026-05-07 07:53 31.12813 121.82346 22 ft 20 kts 342°
2026-05-07 07:53 31.13179 121.82207 22 ft 88 kts 341°
2026-05-07 07:54 31.13944 121.81918 25 ft 140 kts 342°
2026-05-07 07:54 31.15006 121.81515 35 ft 178 kts 343°
2026-05-07 07:54 31.16179 121.81060 525 ft 178 kts 343°
2026-05-07 07:54 31.17399 121.80852 1056 ft 179 kts
2026-05-07 07:55 31.18633 121.81050 1638 ft 178 kts 10°
2026-05-07 07:55 31.19845 121.81324 2127 ft 178 kts 10°
2026-05-07 07:55 31.21065 121.81598 2598 ft 178 kts
2026-05-07 07:55 31.22285 121.81860 3052 ft 179 kts
2026-05-07 07:56 31.23550 121.82122 3292 ft 194 kts
2026-05-07 07:56 31.24956 121.82404 3433 ft 216 kts
2026-05-07 07:56 31.26511 121.82708 3559 ft 240 kts
2026-05-07 07:56 31.28238 121.83040 3920 ft 260 kts
2026-05-07 07:57 31.30045 121.83384 4639 ft 265 kts
2026-05-07 07:57 31.31883 121.83733 5390 ft 269 kts
2026-05-07 07:57 31.33743 121.84105 6157 ft 274 kts 12°
2026-05-07 07:57 31.35497 121.85027 6869 ft 283 kts 33°
2026-05-07 07:58 31.36883 121.86729 7581 ft 292 kts 57°
2026-05-07 07:58 31.37610 121.88938 8249 ft 300 kts 77°
2026-05-07 07:58 31.38015 121.91380 8947 ft 304 kts 79°
2026-05-07 07:58 31.38015 121.93866 9617 ft 311 kts 102°
2026-05-07 07:59 31.37277 121.96256 10197 ft 317 kts 115°
2026-05-07 07:59 31.36380 121.98715 10344 ft 340 kts 114°
2026-05-07 07:59 31.35443 122.01356 10508 ft 361 kts 113°
2026-05-07 07:59 31.34474 122.04118 10981 ft 370 kts 113°
2026-05-07 08:00 31.33493 122.06914 11600 ft 374 kts 114°
2026-05-07 08:00 31.32499 122.09741 12232 ft 378 kts 114°
2026-05-07 08:00 31.31490 122.12598 12870 ft 381 kts 114°
2026-05-07 08:00 31.30471 122.15474 13498 ft 385 kts 114°
2026-05-07 08:01 31.29440 122.18380 14067 ft 389 kts 114°
2026-05-07 08:01 31.28393 122.21314 14607 ft 393 kts 114°
2026-05-07 08:01 31.27335 122.24272 15135 ft 397 kts 114°
2026-05-07 08:01 31.26265 122.27266 15652 ft 401 kts 115°
2026-05-07 08:02 31.25185 122.30286 16162 ft 405 kts 115°
2026-05-07 08:02 31.24092 122.33344 16663 ft 409 kts 115°
2026-05-07 08:02 31.22980 122.36445 17157 ft 413 kts 115°
2026-05-07 08:02 31.21868 122.39548 17632 ft 417 kts 115°
2026-05-07 08:03 31.20739 122.42696 18126 ft 421 kts 115°
2026-05-07 08:03 31.19603 122.45862 18529 ft 424 kts 115°
2026-05-07 08:03 31.18456 122.49053 18923 ft 428 kts 115°
2026-05-07 08:03 31.17299 122.52266 19331 ft 431 kts 115°
2026-05-07 08:04 31.16132 122.55505 19724 ft 434 kts 115°
2026-05-07 08:04 31.14958 122.58754 20113 ft 437 kts 115°
2026-05-07 08:04 31.13717 122.62190 20513 ft 440 kts 115°
2026-05-07 08:04 31.12580 122.65338 20876 ft 443 kts 115°
2026-05-07 08:05 31.11377 122.68661 21263 ft 446 kts 115°
2026-05-07 08:05 31.10170 122.72008 21649 ft 449 kts 115°
2026-05-07 08:05 31.08980 122.75381 22031 ft 452 kts 114°
2026-05-07 08:05 31.07804 122.78793 22405 ft 454 kts 114°
2026-05-07 08:06 31.06622 122.82272 22772 ft 457 kts 114°
2026-05-07 08:06 31.05449 122.85733 23130 ft 460 kts 114°
2026-05-07 08:06 31.04265 122.89216 23480 ft 463 kts 114°
2026-05-07 08:06 31.03069 122.92706 23781 ft 465 kts 114°
2026-05-07 08:07 31.01861 122.96208 24097 ft 467 kts 114°
2026-05-07 08:07 31.00641 122.99731 24420 ft 469 kts 114°
2026-05-07 08:07 30.99417 123.03260 24741 ft 471 kts 114°
2026-05-07 08:07 30.98186 123.06802 25075 ft 472 kts 114°
2026-05-07 08:08 30.96953 123.10352 25399 ft 474 kts 114°
2026-05-07 08:08 30.95710 123.13925 25715 ft 476 kts 114°
2026-05-07 08:08 30.94465 123.17501 26041 ft 478 kts 114°
2026-05-07 08:08 30.93215 123.21097 26351 ft 480 kts 114°
2026-05-07 08:09 30.91961 123.24703 26665 ft 481 kts 114°
2026-05-07 08:09 30.90701 123.28321 26975 ft 483 kts 114°
2026-05-07 08:09 30.89433 123.31959 27292 ft 485 kts 114°
2026-05-07 08:09 30.88160 123.35599 27593 ft 487 kts 114°
2026-05-07 08:10 30.86878 123.39251 27891 ft 488 kts 114°
2026-05-07 08:10 30.85591 123.42922 28197 ft 490 kts 114°
2026-05-07 08:10 30.84721 123.45404 28392 ft 491 kts 114°
2026-05-07 08:10 30.83007 123.50291 28758 ft 494 kts 114°
2026-05-07 08:11 30.81709 123.53990 29026 ft 495 kts 114°
2026-05-07 08:11 30.80825 123.56501 29212 ft 496 kts 115°
2026-05-07 08:11 30.79244 123.60061 29461 ft 495 kts 126°
2026-05-07 08:11 30.77112 123.63176 29705 ft 491 kts 138°
2026-05-07 08:12 30.74522 123.65726 29961 ft 487 kts 149°
2026-05-07 08:12 30.71591 123.67648 30179 ft 482 kts 161°
2026-05-07 08:12 30.68437 123.68873 30458 ft 475 kts 172°
2026-05-07 08:12 30.65195 123.69393 30780 ft 467 kts 182°
2026-05-07 08:13 30.61962 123.69416 31097 ft 464 kts 185°
2026-05-07 08:13 30.58738 123.69412 31423 ft 463 kts 185°
2026-05-07 08:13 30.55509 123.69411 31752 ft 463 kts 185°
2026-05-07 08:13 30.52286 123.69411 31907 ft 463 kts 185°
2026-05-07 08:14 30.49067 123.69413 31936 ft 461 kts 185°
2026-05-07 08:14 30.42772 123.69434 31936 ft 448 kts 185°
2026-05-07 08:15 30.36556 123.69435 31935 ft 447 kts 185°
2026-05-07 08:15 30.30339 123.69420 31938 ft 447 kts 186°
2026-05-07 08:16 30.24084 123.69408 31939 ft 447 kts 185°
2026-05-07 08:16 30.17863 123.69415 31939 ft 447 kts 185°
2026-05-07 08:17 30.11635 123.69418 31940 ft 447 kts 186°
2026-05-07 08:17 30.05415 123.69419 31935 ft 447 kts 186°
2026-05-07 08:18 29.99186 123.69414 31929 ft 448 kts 186°
2026-05-07 08:18 29.92952 123.69413 31929 ft 448 kts 186°
2026-05-07 08:19 29.86721 123.69416 31922 ft 448 kts 187°
2026-05-07 08:19 29.80486 123.69421 31924 ft 448 kts 187°
2026-05-07 08:20 29.74247 123.69427 31921 ft 449 kts 187°
2026-05-07 08:20 29.68002 123.69424 31921 ft 449 kts 187°
2026-05-07 08:21 29.61747 123.69416 31927 ft 449 kts 187°
2026-05-07 08:21 29.55499 123.69418 31924 ft 450 kts 187°
2026-05-07 08:22 29.49238 123.69420 31922 ft 450 kts 187°
2026-05-07 08:22 29.42943 123.69422 31924 ft 450 kts 187°
2026-05-07 08:23 29.36686 123.69426 31920 ft 449 kts 187°
2026-05-07 08:23 29.30429 123.69431 31920 ft 449 kts 187°
2026-05-07 08:24 29.24176 123.69425 31920 ft 449 kts 188°
2026-05-07 08:24 29.17927 123.69414 31926 ft 450 kts 187°
2026-05-07 08:25 29.11668 123.69422 31925 ft 450 kts 187°
2026-05-07 08:25 29.05405 123.69428 31924 ft 450 kts 187°
2026-05-07 08:26 28.96013 123.69415 31927 ft 450 kts 187°
2026-05-07 08:26 28.89739 123.69420 31931 ft 451 kts 186°
2026-05-07 08:27 28.83463 123.69418 31932 ft 451 kts 186°
2026-05-07 08:27 28.77195 123.69417 31941 ft 450 kts 186°
2026-05-07 08:28 28.74107 123.69129 31935 ft 439 kts 200°
2026-05-07 08:28 28.71167 123.68218 31954 ft 441 kts 201°
2026-05-07 08:28 28.65130 123.66283 31949 ft 452 kts 201°
2026-05-07 08:29 28.59069 123.64328 31954 ft 453 kts 201°
2026-05-07 08:29 28.53098 123.62276 31947 ft 439 kts 205°
2026-05-07 08:30 28.47433 123.59843 31949 ft 433 kts 207°
2026-05-07 08:30 28.41850 123.57274 31949 ft 433 kts 207°
2026-05-07 08:31 28.36233 123.54779 31951 ft 434 kts 207°
2026-05-07 08:31 28.30591 123.52350 31948 ft 434 kts 206°
2026-05-07 08:32 28.24938 123.49934 31950 ft 434 kts 206°
2026-05-07 08:32 28.19292 123.47515 31947 ft 434 kts 207°
2026-05-07 08:33 28.13659 123.45084 31943 ft 433 kts 207°
2026-05-07 08:33 28.08025 123.42646 31941 ft 434 kts 207°
2026-05-07 08:34 28.02383 123.40215 31940 ft 434 kts 207°
2026-05-07 08:34 27.96698 123.37783 31946 ft 434 kts 206°
2026-05-07 08:35 27.91052 123.35372 31943 ft 434 kts 206°
2026-05-07 08:35 27.85402 123.32954 31944 ft 434 kts 206°
2026-05-07 08:36 27.79760 123.30534 31943 ft 434 kts 207°
2026-05-07 08:36 27.74114 123.28117 31948 ft 434 kts 206°
2026-05-07 08:37 27.68472 123.25717 31946 ft 434 kts 206°
2026-05-07 08:37 27.62824 123.23318 31942 ft 434 kts 206°
2026-05-07 08:38 27.57180 123.20909 31936 ft 434 kts 206°
2026-05-07 08:38 27.51503 123.18488 31936 ft 434 kts 206°
2026-05-07 08:39 27.45856 123.16087 31934 ft 434 kts 206°
2026-05-07 08:39 27.40205 123.13689 31934 ft 434 kts 206°
2026-05-07 08:40 27.34562 123.11297 31934 ft 434 kts 206°
2026-05-07 08:40 27.28914 123.08918 31936 ft 434 kts 206°
2026-05-07 08:41 27.23264 123.06533 31933 ft 434 kts 206°
2026-05-07 08:41 27.17622 123.04143 31933 ft 433 kts 206°
2026-05-07 08:42 27.12890 123.02145 31930 ft 434 kts 206°
2026-05-07 08:42 27.07360 122.99537 31926 ft 427 kts 215°
2026-05-07 08:43 27.02513 122.95785 31932 ft 423 kts 220°
2026-05-07 08:43 26.97717 122.91964 31927 ft 423 kts 220°
2026-05-07 08:44 26.92906 122.88154 31931 ft 423 kts 220°
2026-05-07 08:44 26.88098 122.84336 31924 ft 423 kts 220°
2026-05-07 08:45 26.83293 122.80526 31924 ft 423 kts 220°
2026-05-07 08:45 26.78480 122.76713 31922 ft 424 kts 220°
2026-05-07 08:46 26.73666 122.72901 31922 ft 424 kts 220°
2026-05-07 08:46 26.68851 122.69096 31917 ft 424 kts 220°
2026-05-07 08:47 26.64032 122.65286 31921 ft 424 kts 220°
2026-05-07 08:47 26.59208 122.61476 31921 ft 425 kts 220°
2026-05-07 08:48 26.54343 122.57642 31918 ft 425 kts 220°
2026-05-07 08:48 26.49536 122.53868 31917 ft 425 kts 220°
2026-05-07 08:49 26.44670 122.50045 31919 ft 425 kts 220°
2026-05-07 08:49 26.39829 122.46235 31919 ft 426 kts 220°
2026-05-07 08:50 26.34991 122.42426 31918 ft 426 kts 219°
2026-05-07 08:50 26.30146 122.38632 31917 ft 426 kts 219°
2026-05-07 08:51 26.27716 122.36728 31717 ft 427 kts 219°
2026-05-07 08:51 26.25289 122.34825 31476 ft 427 kts 219°
2026-05-07 08:51 26.22869 122.32924 31220 ft 425 kts 219°
2026-05-07 08:51 26.20458 122.31032 30712 ft 422 kts 219°
2026-05-07 08:52 26.18057 122.29158 30157 ft 421 kts 219°
2026-05-07 08:52 26.15665 122.27297 29549 ft 419 kts 219°
2026-05-07 08:52 26.13285 122.25448 28991 ft 416 kts 219°
2026-05-07 08:52 26.10917 122.23620 28431 ft 413 kts 218°
2026-05-07 08:53 26.08562 122.21812 27876 ft 410 kts 218°
2026-05-07 08:53 26.06221 122.20019 27322 ft 407 kts 218°
2026-05-07 08:53 26.03892 122.18239 26791 ft 405 kts 218°
2026-05-07 08:53 26.01576 122.16471 26260 ft 403 kts 218°
2026-05-07 08:54 25.99274 122.14714 25722 ft 401 kts 217°
2026-05-07 08:54 25.96979 122.12965 25207 ft 398 kts 217°
2026-05-07 08:54 25.94707 122.11233 24698 ft 396 kts 217°
2026-05-07 08:54 25.92442 122.09505 24209 ft 393 kts 217°
2026-05-07 08:55 25.90194 122.07787 23714 ft 391 kts 217°
2026-05-07 08:55 25.87932 122.06059 23191 ft 388 kts 217°
2026-05-07 08:55 25.85719 122.04368 22716 ft 383 kts 217°
2026-05-07 08:55 25.83539 122.02705 22276 ft 378 kts 217°
2026-05-07 08:56 25.81385 122.01065 21831 ft 373 kts 217°
2026-05-07 08:56 25.79256 121.99442 21380 ft 369 kts 217°
2026-05-07 08:56 25.77149 121.97837 20937 ft 365 kts 217°
2026-05-07 08:56 25.75064 121.96248 20486 ft 362 kts 217°
2026-05-07 08:57 25.72991 121.94671 20059 ft 360 kts 217°
2026-05-07 08:57 25.70917 121.93088 19899 ft 364 kts 217°
2026-05-07 08:57 25.68839 121.91490 19874 ft 364 kts 217°
2026-05-07 08:57 25.66771 121.89894 19440 ft 361 kts 217°
2026-05-07 08:58 25.64851 121.88137 18991 ft 356 kts 228°
2026-05-07 08:58 25.63325 121.86007 18553 ft 351 kts 239°
2026-05-07 08:58 25.62123 121.83673 18117 ft 348 kts 241°
2026-05-07 08:58 25.60938 121.81345 17620 ft 346 kts 241°
2026-05-07 08:59 25.59753 121.79033 17150 ft 344 kts 241°
2026-05-07 08:59 25.58573 121.76740 16676 ft 342 kts 241°
2026-05-07 08:59 25.57396 121.74455 16329 ft 341 kts 241°
2026-05-07 08:59 25.56225 121.72178 15977 ft 340 kts 242°
2026-05-07 09:00 25.55056 121.69904 15633 ft 339 kts 242°
2026-05-07 09:00 25.53891 121.67639 15292 ft 338 kts 242°
2026-05-07 09:00 25.52732 121.65388 14947 ft 336 kts 242°
2026-05-07 09:00 25.51576 121.63143 14590 ft 335 kts 242°
2026-05-07 09:01 25.50426 121.60905 14258 ft 334 kts 242°
2026-05-07 09:01 25.49266 121.58650 13914 ft 332 kts 242°
2026-05-07 09:01 25.47938 121.56560 13560 ft 333 kts 231°
2026-05-07 09:01 25.46423 121.54627 13195 ft 332 kts 231°
2026-05-07 09:02 25.44917 121.52705 12850 ft 330 kts 231°
2026-05-07 09:02 25.43420 121.50792 12575 ft 328 kts 231°
2026-05-07 09:02 25.41931 121.48883 12267 ft 327 kts 231°
2026-05-07 09:02 25.40453 121.46989 11932 ft 325 kts 231°
2026-05-07 09:03 25.38990 121.45117 11602 ft 323 kts 231°
2026-05-07 09:03 25.37525 121.43246 11277 ft 321 kts 231°
2026-05-07 09:03 25.36067 121.41386 10948 ft 319 kts 231°
2026-05-07 09:03 25.34618 121.39537 10628 ft 318 kts 230°
2026-05-07 09:04 25.33181 121.37703 10371 ft 311 kts 230°
2026-05-07 09:04 25.31791 121.35930 10255 ft 298 kts 230°
2026-05-07 09:04 25.30457 121.34232 10128 ft 287 kts 230°
2026-05-07 09:04 25.29168 121.32583 9912 ft 280 kts 230°
2026-05-07 09:05 25.27899 121.30963 9802 ft 279 kts 230°
2026-05-07 09:05 25.26630 121.29344 9554 ft 278 kts 230°
2026-05-07 09:05 25.25368 121.27733 9287 ft 277 kts 230°
2026-05-07 09:05 25.24110 121.26129 9026 ft 275 kts 230°
2026-05-07 09:06 25.22858 121.24538 8769 ft 274 kts 230°
2026-05-07 09:06 25.21610 121.22953 8501 ft 273 kts 230°
2026-05-07 09:06 25.20369 121.21376 8244 ft 272 kts 230°
2026-05-07 09:06 25.19131 121.19803 7986 ft 270 kts 230°
2026-05-07 09:07 25.17899 121.18241 7727 ft 269 kts 229°
2026-05-07 09:07 25.16678 121.16688 7471 ft 267 kts 229°
2026-05-07 09:07 25.15463 121.15143 7216 ft 266 kts 229°
2026-05-07 09:07 25.14237 121.13588 6945 ft 264 kts 229°
2026-05-07 09:08 25.13033 121.12059 6707 ft 263 kts 229°
2026-05-07 09:08 25.11838 121.10537 6455 ft 262 kts 229°
2026-05-07 09:08 25.10645 121.09020 6182 ft 261 kts 229°
2026-05-07 09:08 25.09460 121.07514 5911 ft 260 kts 229°
2026-05-07 09:09 25.08271 121.06005 5641 ft 260 kts 229°
2026-05-07 09:09 25.07093 121.04506 5381 ft 257 kts 229°
2026-05-07 09:09 25.05931 121.03033 5121 ft 252 kts 229°
2026-05-07 09:09 25.04795 121.01624 4864 ft 239 kts 224°
2026-05-07 09:10 25.03396 121.00750 4630 ft 229 kts 194°
2026-05-07 09:10 25.01855 121.00758 4397 ft 220 kts 166°
2026-05-07 09:10 25.00539 121.01566 4161 ft 219 kts 139°
2026-05-07 09:10 24.99439 121.02729 4045 ft 219 kts 139°
2026-05-07 09:11 24.98350 121.03881 4022 ft 210 kts 139°
2026-05-07 09:11 24.97339 121.04949 3906 ft 196 kts 139°
2026-05-07 09:11 24.96417 121.06066 3490 ft 202 kts 124°
2026-05-07 09:11 24.95939 121.07510 3257 ft 201 kts 98°
2026-05-07 09:12 24.96026 121.09035 3070 ft 201 kts 73°
2026-05-07 09:12 24.96651 121.10385 2856 ft 198 kts 49°
2026-05-07 09:12 24.97553 121.11528 2611 ft 197 kts 47°
2026-05-07 09:12 24.98446 121.12659 2366 ft 192 kts 47°
2026-05-07 09:13 24.99314 121.13760 2115 ft 184 kts 47°
2026-05-07 09:13 25.00125 121.14788 1910 ft 174 kts 47°
2026-05-07 09:13 25.00643 121.15445 1766 ft 168 kts 47°
2026-05-07 09:13 25.01626 121.16692 1451 ft 154 kts 48°
2026-05-07 09:14 25.02316 121.17567 1273 ft 149 kts 47°
2026-05-07 09:14 25.02990 121.18423 1078 ft 147 kts 47°
2026-05-07 09:14 25.03431 121.18984 959 ft 146 kts 47°
2026-05-07 09:14 25.04097 121.19829 787 ft 145 kts 47°
2026-05-07 09:15 25.04758 121.20665 584 ft 144 kts 47°
2026-05-07 09:15 25.05413 121.21497 373 ft 144 kts 47°
2026-05-07 09:15 25.06064 121.22332 163 ft 143 kts 46°
2026-05-07 09:15 25.06700 121.23135 95 ft 118 kts 49°
2026-05-07 09:16 25.07106 121.23651 94 ft 64 kts 49°
2026-05-07 09:16 25.07315 121.23916 93 ft 33 kts 49°
2026-05-07 09:16 25.07460 121.24094 93 ft 30 kts 44°
2026-05-07 09:16 25.07622 121.24200 97 ft 21 kts 20°
2026-05-07 09:17 25.07745 121.24248 99 ft 18 kts 20°
2026-05-07 09:17 25.07848 121.24282 100 ft 13 kts
2026-05-07 09:17 25.07922 121.24233 100 ft 12 kts 319°
2026-05-07 09:17 25.07982 121.24170 100 ft 11 kts 302°
2026-05-07 09:18 25.07959 121.24094 101 ft 13 kts 230°
2026-05-07 09:18 25.07878 121.23990 100 ft 24 kts 229°
2026-05-07 09:18 25.07759 121.23837 101 ft 27 kts 229°
2026-05-07 09:18 25.07637 121.23682 101 ft 26 kts 229°
2026-05-07 09:19 25.07519 121.23529 100 ft 26 kts 229°
2026-05-07 09:19 25.07424 121.23409 101 ft 15 kts 229°
2026-05-07 09:19 25.07396 121.23336 101 ft 7 kts 304°
2026-05-07 09:19 25.07431 121.23298 101 ft 7 kts 320°
2026-05-07 09:20 25.07459 121.23270 101 ft 2 kts 319°
2026-05-07 09:20 25.07468 121.23262 100 ft 0 kts 319°